Location: Unspecified
(0.0000°N, 0.0000°E)
Time: 18:59:04
(UTC+00:00)

ISS - Visible Passes

Search period start: 13 April 2024 00:00
Search period end: 23 April 2024 00:00
Orbit: 413 x 419 km, 51.6° (Epoch: 13 April)

Date Brightness Start Highest point End Pass type
(mag) Time Alt. Az. Time Alt. Az. Time Alt. Az.
13 Apr -1.2 04:15:11 16° SE 04:15:31 16° SE 04:17:42 10° E visible
14 Apr -3.0 05:02:36 28° W 05:03:34 34° NW 05:06:38 10° NNE visible
15 Apr -1.7 04:16:56 24° NE 04:16:56 24° NE 04:18:24 10° NE visible
